"Date","Time","Latitude","Longitude","Speed","Course","Altitude","Satellites","GPS quality","C1","0.25um","0.28um","0.3um","0.35um","0.4um","0.45um","0.5um","0.58um","C2","0.65um","0.7um","0.8um","1.0um","1.3um","1.6um","2.0um","2.5um","C3","3.0um","3.5um","4.0um","5.0um","6.5um","7.5um","8.5um","10.0um","C4","12.5um","15.0um","17.5um","20.0um","25.0um","30.0um","32.0um",">32um"
17/08/11,06:59:45,51 53.6573 N,002 09.8738 W,91.90,263.71,31.5,08,1,N4,317,309,302,298,294,291,288,287,N4,285,284,283,280,278,276,273,265,n4,247,209,179,147,66,0,0,0,n4,0,0,0,0,0,0,0,0
17/08/11,06:59:51,51 53.6387 N,002 10.1508 W,105.00,263.86,45.6,08,1,N5,241,231,224,220,215,212,209,207,N5,205,204,203,202,198,196,193,184,n5,184,173,152,119,63,30,0,0,n5,0,0,0,0,0,0,0,0
17/08/11,06:59:58,51 53.6149 N,002 10.4917 W,109.50,262.93,97.0,08,1,N6,201,194,188,186,182,180,178,177,N6,175,174,174,173,170,169,168,168,n6,148,116,101,73,33,0,0,0,n6,0,0,0,0,0,0,0,0
17/08/11,07:00:04,51 53.5948 N,002 10.7904 W,111.35,263.98,148.3,08,1,N7,65,60,56,54,52,50,49,48,N7,48,47,46,46,45,44,42,40,n7,27,22,16,16,0,0,0,0,n7,0,0,0,0,0,0,0,0
17/08/11,07:00:10,51 53.5797 N,002 11.0956 W,114.95,267.44,193.2,08,1,N8,71,69,67,66,65,64,64,64,N8,63,63,63,61,60,59,57,56,n8,46,17,8,8,0,0,0,0,n8,0,0,0,0,0,0,0,0
17/08/11,07:00:15,51 53.5981 N,002 11.3599 W,120.07,280.67,214.1,08,1,N9,199,197,194,193,192,192,191,191,N9,190,190,189,189,188,186,185,183,n9,168,143,134,125,125,125,125,125,n9,125,0,0,0,0,0,0,0
17/08/11,07:00:21,51 53.6547 N,002 11.6927 W,131.38,286.47,215.9,08,1,N0,81,79,77,76,75,75,74,74,N0,73,73,72,72,71,71,71,71,n0,47,39,33,24,0,0,0,0,n0,0,0,0,0,0,0,0,0
17/08/11,07:00:28,51 53.6884 N,002 12.1169 W,138.23,270.33,246.0,08,1,N1,38,37,35,34,34,33,33,32,N1,32,31,31,30,30,28,27,24,n1,13,8,8,8,0,0,0,0,n1,0,0,0,0,0,0,0,0
17/08/11,07:00:34,51 53.6295 N,002 12.4786 W,139.27,247.74,291.6,08,1,N2,57,55,53,52,51,51,50,50,N2,50,49,49,49,49,47,47,42,n2,34,21,12,8,0,0,0,0,n2,0,0,0,0,0,0,0,0
17/08/11,07:00:40,51 53.4928 N,002 12.7791 W,138.31,227.22,343.9,08,1,N3,56,54,53,52,51,51,50,50,N3,50,49,49,48,48,47,40,39,n3,28,24,9,0,0,0,0,0,n3,0,0,0,0,0,0,0,0
17/08/11,07:00:45,51 53.3339 N,002 12.9547 W,138.59,209.34,381.5,08,1,N4,96,94,93,92,92,91,91,91,N4,90,90,89,88,86,85,82,82,n4,53,32,8,8,0,0,0,0,n4,0,0,0,0,0,0,0,0
17/08/11,07:00:51,51 53.1097 N,002 13.0491 W,138.80,188.11,423.2,08,1,N5,80,78,77,76,75,75,74,74,N5,74,73,73,72,71,69,66,57,n5,17,16,4,0,0,0,0,0,n5,0,0,0,0,0,0,0,0
17/08/11,07:00:58,51 52.8451 N,002 12.9988 W,135.15,166.21,482.6,08,1,N6,31,29,28,27,27,26,26,26,N6,25,24,24,24,23,23,21,21,n6,21,21,12,8,0,0,0,0,n6,0,0,0,0,0,0,0,0
17/08/11,07:01:04,51 52.6363 N,002 12.8740 W,131.31,158.27,539.8,08,1,N7,12,10,9,9,8,7,7,7,N7,6,6,5,5,4,2,1,0,n7,0,0,0,0,0,0,0,0,n7,0,0,0,0,0,0,0,0
17/08/11,07:01:10,51 52.4375 N,002 12.7326 W,128.54,155.64,595.9,08,1,N8,43,42,40,40,39,38,38,38,N8,38,37,37,36,36,35,35,29,n8,19,15,12,8,0,0,0,0,n8,0,0,0,0,0,0,0,0
17/08/11,07:01:15,51 52.2791 N,002 12.6125 W,124.13,155.22,648.1,08,1,N9,59,58,57,57,56,56,55,55,N9,55,55,55,54,53,53,51,48,n9,41,32,32,32,16,0,0,0,n9,0,0,0,0,0,0,0,0
17/08/11,07:01:21,51 52.0969 N,002 12.4721 W,119.11,154.69,710.0,08,1,N0,35,33,32,32,31,31,31,30,N0,30,29,29,28,28,28,28,23,n0,15,9,0,0,0,0,0,0,n0,0,0,0,0,0,0,0,0
17/08/11,07:01:27,51 51.9192 N,002 12.3342 W,117.79,154.53,760.6,08,1,N1,5,4,3,3,2,2,2,2,N1,1,1,0,0,0,0,0,0,n1,0,0,0,0,0,0,0,0,n1,0,0,0,0,0,0,0,0
17/08/11,07:01:34,51 51.7134 N,002 12.1698 W,118.17,153.49,810.5,08,1,N2,9,8,8,7,7,7,7,7,N2,6,6,6,5,5,4,1,0,n2,0,0,0,0,0,0,0,0,n2,0,0,0,0,0,0,0,0
17/08/11,07:01:40,51 51.5364 N,002 12.0208 W,120.42,151.89,846.7,08,1,N3,6,5,4,4,4,4,4,3,N3,3,2,2,2,1,1,1,0,n3,0,0,0,0,0,0,0,0,n3,0,0,0,0,0,0,0,0
17/08/11,07:01:45,51 51.3894 N,002 11.8846 W,122.45,149.53,875.6,08,1,N4,19,18,18,17,17,17,17,16,N4,16,16,16,15,15,15,15,13,n4,13,10,4,0,0,0,0,0,n4,0,0,0,0,0,0,0,0
17/08/11,07:01:51,51 51.2165 N,002 11.7087 W,122.34,147.34,917.0,08,1,N5,39,38,38,37,37,36,36,36,N5,36,36,35,35,35,34,34,31,n5,27,15,9,0,0,0,0,0,n5,0,0,0,0,0,0,0,0
17/08/11,07:01:58,51 51.0204 N,002 11.4863 W,123.93,143.54,960.6,08,1,N6,6,5,4,3,3,3,2,2,N6,2,1,1,1,1,1,1,0,n6,0,0,0,0,0,0,0,0,n6,0,0,0,0,0,0,0,0
17/08/11,07:02:04,51 50.8452 N,002 11.2996 W,127.42,150.03,995.3,08,1,N7,27,26,25,24,24,24,24,23,N7,23,23,22,22,21,21,19,17,n7,17,14,8,8,0,0,0,0,n7,0,0,0,0,0,0,0,0
17/08/11,07:02:10,51 50.6512 N,002 11.1559 W,127.55,155.93,1038.9,08,1,N8,15,14,13,13,12,12,11,11,N8,11,11,10,10,9,9,9,9,n8,8,3,0,0,0,0,0,0,n8,0,0,0,0,0,0,0,0
17/08/11,07:02:15,51 50.4937 N,002 11.0369 W,124.29,154.60,1084.0,08,1,N9,25,24,24,23,23,23,22,22,N9,22,22,21,21,20,20,20,18,n9,4,4,4,0,0,0,0,0,n9,0,0,0,0,0,0,0,0
17/08/11,07:02:21,51 50.3106 N,002 10.8906 W,122.09,153.32,1134.2,08,1,N0,19,18,17,17,17,16,16,16,N0,16,15,15,15,15,15,15,13,n0,10,10,10,8,0,0,0,0,n0,0,0,0,0,0,0,0,0
17/08/11,07:02:28,51 50.1018 N,002 10.7151 W,120.57,152.15,1188.4,08,1,N1,29,28,27,27,27,26,26,26,N1,26,25,25,25,25,24,20,17,n1,14,6,0,0,0,0,0,0,n1,0,0,0,0,0,0,0,0
17/08/11,07:02:34,51 49.9265 N,002 10.5609 W,119.42,150.96,1232.6,08,1,N2,19,18,17,17,16,16,16,15,N2,15,15,15,15,15,14,14,12,n2,12,7,4,0,0,0,0,0,n2,0,0,0,0,0,0,0,0
17/08/11,07:02:40,51 49.7542 N,002 10.4001 W,119.63,149.47,1272.7,08,1,N3,6,5,5,5,4,4,4,4,N3,3,3,3,3,3,2,0,0,n3,0,0,0,0,0,0,0,0,n3,0,0,0,0,0,0,0,0
17/08/11,07:02:45,51 49.6125 N,002 10.2594 W,120.14,147.97,1304.7,08,1,N4,3,2,2,1,1,1,1,0,N4,0,0,0,0,0,0,0,0,n4,0,0,0,0,0,0,0,0,n4,0,0,0,0,0,0,0,0
17/08/11,07:02:51,51 49.4427 N,002 10.0845 W,121.53,147.63,1340.9,08,1,N5,16,15,14,14,14,14,14,13,N5,13,12,12,12,12,12,12,10,n5,9,6,0,0,0,0,0,0,n5,0,0,0,0,0,0,0,0
17/08/11,07:02:58,51 49.2416 N,002 09.8788 W,123.05,147.61,1383.3,08,1,N6,5,4,3,3,3,2,2,2,N6,2,1,1,1,1,1,0,0,n6,0,0,0,0,0,0,0,0,n6,0,0,0,0,0,0,0,0
17/08/11,07:03:04,51 49.0677 N,002 09.7031 W,123.24,148.20,1423.5,08,1,N7,15,14,13,13,13,12,12,12,N7,12,12,12,11,11,11,11,11,n7,10,4,4,0,0,0,0,0,n7,0,0,0,0,0,0,0,0
17/08/11,07:03:10,51 48.8953 N,002 09.5283 W,121.82,147.62,1469.2,08,1,N8,23,23,22,22,21,21,21,21,N8,20,20,20,19,19,18,18,18,n8,11,8,8,8,0,0,0,0,n8,0,0,0,0,0,0,0,0
17/08/11,07:03:15,51 48.7544 N,002 09.3801 W,121.12,146.63,1505.8,08,1,N9,19,18,18,17,17,17,17,16,N9,16,16,16,16,15,15,15,14,n9,12,8,8,8,0,0,0,0,n9,0,0,0,0,0,0,0,0
17/08/11,07:03:20,51 48.6155 N,002 09.2276 W,121.21,145.54,1539.2,08,1,N0,2,2,1,1,1,1,0,0,N0,0,0,0,0,0,0,0,0,n0,0,0,0,0,0,0,0,0,n0,0,0,0,0,0,0,0,0
17/08/11,07:03:27,51 48.4227 N,002 09.0068 W,122.20,144.17,1582.3,08,1,N1,2,1,1,1,1,0,0,0,N1,0,0,0,0,0,0,0,0,n1,0,0,0,0,0,0,0,0,n1,0,0,0,0,0,0,0,0
17/08/11,07:03:33,51 48.2588 N,002 08.8113 W,122.45,143.32,1618.5,08,1,N2,2,1,1,1,1,0,0,0,N2,0,0,0,0,0,0,0,0,n2,0,0,0,0,0,0,0,0,n2,0,0,0,0,0,0,0,0
17/08/11,07:03:39,51 48.0963 N,002 08.6140 W,121.91,142.79,1656.6,08,1,N3,1,1,1,0,0,0,0,0,N3,0,0,0,0,0,0,0,0,n3,0,0,0,0,0,0,0,0,n3,0,0,0,0,0,0,0,0
17/08/11,07:03:45,51 47.9373 N,002 08.4150 W,120.60,141.96,1697.1,08,1,N4,1,1,1,0,0,0,0,0,N4,0,0,0,0,0,0,0,0,n4,0,0,0,0,0,0,0,0,n4,0,0,0,0,0,0,0,0
17/08/11,07:03:50,51 47.8058 N,002 08.2479 W,120.92,141.82,1727.0,08,1,N5,1,1,0,0,0,0,0,0,N5,0,0,0,0,0,0,0,0,n5,0,0,0,0,0,0,0,0,n5,0,0,0,0,0,0,0,0
17/08/11,07:03:57,51 47.6218 N,002 08.0119 W,121.06,141.32,1768.5,08,1,N6,1,1,0,0,0,0,0,0,N6,0,0,0,0,0,0,0,0,n6,0,0,0,0,0,0,0,0,n6,0,0,0,0,0,0,0,0
17/08/11,07:04:03,51 47.4671 N,002 07.8069 W,119.84,140.32,1808.0,08,1,N7,1,1,1,0,0,0,0,0,N7,0,0,0,0,0,0,0,0,n7,0,0,0,0,0,0,0,0,n7,0,0,0,0,0,0,0,0
17/08/11,07:04:10,51 47.2889 N,002 07.5673 W,119.71,140.12,1850.0,08,1,N8,3,2,2,2,1,1,1,1,N8,1,0,0,0,0,0,0,0,n8,0,0,0,0,0,0,0,0,n8,0,0,0,0,0,0,0,0
17/08/11,07:04:15,51 47.1618 N,002 07.3936 W,120.38,139.65,1878.7,08,1,N9,4,3,3,2,2,2,1,1,N9,1,1,1,1,1,1,0,0,n9,0,0,0,0,0,0,0,0,n9,0,0,0,0,0,0,0,0
17/08/11,07:04:21,51 47.0037 N,002 07.1972 W,119.66,144.01,1915.3,08,1,N0,8,8,8,7,7,7,7,7,N0,7,7,7,7,7,7,7,7,n0,4,0,0,0,0,0,0,0,n0,0,0,0,0,0,0,0,0
17/08/11,07:04:27,51 46.8402 N,002 07.0167 W,118.97,145.90,1953.9,08,1,N1,2,1,1,1,1,1,0,0,N1,0,0,0,0,0,0,0,0,n1,0,0,0,0,0,0,0,0,n1,0,0,0,0,0,0,0,0
17/08/11,07:04:34,51 46.6472 N,002 06.8105 W,119.77,146.73,1994.9,08,1,N2,2,1,1,1,1,0,0,0,N2,0,0,0,0,0,0,0,0,n2,0,0,0,0,0,0,0,0,n2,0,0,0,0,0,0,0,0
17/08/11,07:04:40,51 46.4754 N,002 06.6455 W,120.45,150.68,2026.8,08,1,N3,2,2,2,1,1,1,0,0,N3,0,0,0,0,0,0,0,0,n3,0,0,0,0,0,0,0,0,n3,0,0,0,0,0,0,0,0
17/08/11,07:04:45,51 46.3270 N,002 06.5217 W,120.44,153.12,2055.4,08,1,N4,2,1,1,1,0,0,0,0,N4,0,0,0,0,0,0,0,0,n4,0,0,0,0,0,0,0,0,n4,0,0,0,0,0,0,0,0
17/08/11,07:04:51,51 46.1459 N,002 06.3908 W,118.77,156.63,2093.6,08,1,N5,2,1,1,1,1,0,0,0,N5,0,0,0,0,0,0,0,0,n5,0,0,0,0,0,0,0,0,n5,0,0,0,0,0,0,0,0
17/08/11,07:04:57,51 45.9647 N,002 06.2671 W,118.31,157.03,2129.4,08,1,N6,1,1,1,1,0,0,0,0,N6,0,0,0,0,0,0,0,0,n6,0,0,0,0,0,0,0,0,n6,0,0,0,0,0,0,0,0
17/08/11,07:05:03,51 45.7816 N,002 06.1460 W,119.19,158.15,2159.6,08,1,N7,1,1,1,0,0,0,0,0,N7,0,0,0,0,0,0,0,0,n7,0,0,0,0,0,0,0,0,n7,0,0,0,0,0,0,0,0
17/08/11,07:05:10,51 45.5658 N,002 06.0127 W,118.61,159.26,2198.9,08,1,N8,2,1,1,1,1,0,0,0,N8,0,0,0,0,0,0,0,0,n8,0,0,0,0,0,0,0,0,n8,0,0,0,0,0,0,0,0
17/08/11,07:05:15,51 45.4124 N,002 05.9194 W,118.19,159.14,2229.7,08,1,N9,1,1,0,0,0,0,0,0,N9,0,0,0,0,0,0,0,0,n9,0,0,0,0,0,0,0,0,n9,0,0,0,0,0,0,0,0
17/08/11,07:05:21,51 45.2275 N,002 05.8042 W,119.78,158.70,2262.3,08,1,N0,6,5,5,5,5,4,4,4,N0,4,3,3,3,2,2,1,0,n0,0,0,0,0,0,0,0,0,n0,0,0,0,0,0,0,0,0
17/08/11,07:05:28,51 45.0088 N,002 05.6604 W,122.71,157.19,2296.6,08,1,N1,4,3,3,3,2,2,2,2,N1,1,1,1,1,1,1,1,0,n1,0,0,0,0,0,0,0,0,n1,0,0,0,0,0,0,0,0
17/08/11,07:05:33,51 44.8510 N,002 05.5518 W,124.01,156.59,2320.2,08,1,N2,1,1,1,1,0,0,0,0,N2,0,0,0,0,0,0,0,0,n2,0,0,0,0,0,0,0,0,n2,0,0,0,0,0,0,0,0
17/08/11,07:05:39,51 44.6631 N,002 05.4151 W,123.68,155.20,2354.8,08,1,N3,2,1,1,1,1,0,0,0,N3,0,0,0,0,0,0,0,0,n3,0,0,0,0,0,0,0,0,n3,0,0,0,0,0,0,0,0
17/08/11,07:05:45,51 44.4785 N,002 05.2757 W,121.81,155.46,2394.7,08,1,N4,2,1,1,1,0,0,0,0,N4,0,0,0,0,0,0,0,0,n4,0,0,0,0,0,0,0,0,n4,0,0,0,0,0,0,0,0
17/08/11,07:05:50,51 44.3246 N,002 05.1733 W,119.42,158.38,2427.4,08,1,N5,2,1,1,1,1,0,0,0,N5,0,0,0,0,0,0,0,0,n5,0,0,0,0,0,0,0,0,n5,0,0,0,0,0,0,0,0
17/08/11,07:05:57,51 44.1090 N,002 05.0420 W,118.49,160.04,2466.7,08,1,N6,1,1,1,0,0,0,0,0,N6,0,0,0,0,0,0,0,0,n6,0,0,0,0,0,0,0,0,n6,0,0,0,0,0,0,0,0
17/08/11,07:06:03,51 43.9143 N,002 04.9372 W,126.72,162.14,2471.8,08,1,N7,1,1,0,0,0,0,0,0,N7,0,0,0,0,0,0,0,0,n7,0,0,0,0,0,0,0,0,n7,0,0,0,0,0,0,0,0
17/08/11,07:06:10,51 43.6757 N,002 04.8122 W,127.78,161.48,2502.0,08,1,N8,1,1,1,1,1,0,0,0,N8,0,0,0,0,0,0,0,0,n8,0,0,0,0,0,0,0,0,n8,0,0,0,0,0,0,0,0
17/08/11,07:06:15,51 43.5106 N,002 04.7431 W,121.21,166.54,2545.2,08,1,N9,2,2,2,2,2,1,1,1,N9,1,1,1,1,1,1,0,0,n9,0,0,0,0,0,0,0,0,n9,0,0,0,0,0,0,0,0
17/08/11,07:06:20,51 43.3508 N,002 04.6844 W,117.19,167.10,2585.6,08,1,N0,0,0,0,0,0,0,0,0,N0,0,0,0,0,0,0,0,0,n0,0,0,0,0,0,0,0,0,n0,0,0,0,0,0,0,0,0
17/08/11,07:06:28,51 43.0977 N,002 04.5916 W,117.61,167.06,2630.0,08,1,N1,1,0,0,0,0,0,0,0,N1,0,0,0,0,0,0,0,0,n1,0,0,0,0,0,0,0,0,n1,0,0,0,0,0,0,0,0
17/08/11,07:06:34,51 42.9056 N,002 04.5244 W,117.91,168.10,2658.2,08,1,N2,1,0,0,0,0,0,0,0,N2,0,0,0,0,0,0,0,0,n2,0,0,0,0,0,0,0,0,n2,0,0,0,0,0,0,0,0
17/08/11,07:06:39,51 42.7463 N,002 04.4763 W,116.55,169.61,2685.4,08,1,N3,1,1,0,0,0,0,0,0,N3,0,0,0,0,0,0,0,0,n3,0,0,0,0,0,0,0,0,n3,0,0,0,0,0,0,0,0
17/08/11,07:06:45,51 42.5558 N,002 04.4201 W,116.54,169.21,2718.1,08,1,N4,2,1,1,1,1,0,0,0,N4,0,0,0,0,0,0,0,0,n4,0,0,0,0,0,0,0,0,n4,0,0,0,0,0,0,0,0
17/08/11,07:06:51,51 42.3647 N,002 04.3586 W,117.70,168.12,2747.9,08,1,N5,1,1,1,1,0,0,0,0,N5,0,0,0,0,0,0,0,0,n5,0,0,0,0,0,0,0,0,n5,0,0,0,0,0,0,0,0
17/08/11,07:06:57,51 42.1726 N,002 04.2937 W,118.04,168.19,2776.4,08,1,N6,1,1,1,0,0,0,0,0,N6,0,0,0,0,0,0,0,0,n6,0,0,0,0,0,0,0,0,n6,0,0,0,0,0,0,0,0
17/08/11,07:07:04,51 41.9465 N,002 04.2177 W,119.79,168.12,2803.4,08,1,N7,2,2,1,1,1,0,0,0,N7,0,0,0,0,0,0,0,0,n7,0,0,0,0,0,0,0,0,n7,0,0,0,0,0,0,0,0
17/08/11,07:07:09,51 41.7822 N,002 04.1673 W,120.97,169.44,2821.9,08,1,N8,1,1,1,0,0,0,0,0,N8,0,0,0,0,0,0,0,0,n8,0,0,0,0,0,0,0,0,n8,0,0,0,0,0,0,0,0
17/08/11,07:07:15,51 41.5847 N,002 04.1185 W,119.32,171.81,2853.9,08,1,N9,2,1,1,1,0,0,0,0,N9,0,0,0,0,0,0,0,0,n9,0,0,0,0,0,0,0,0,n9,0,0,0,0,0,0,0,0
17/08/11,07:07:21,51 41.3899 N,002 04.0759 W,117.86,172.32,2890.4,08,1,N0,2,2,1,1,1,0,0,0,N0,0,0,0,0,0,0,0,0,n0,0,0,0,0,0,0,0,0,n0,0,0,0,0,0,0,0,0
17/08/11,07:07:28,51 41.1632 N,002 04.0296 W,117.69,173.00,2926.6,08,1,N1,2,2,1,1,1,1,0,0,N1,0,0,0,0,0,0,0,0,n1,0,0,0,0,0,0,0,0,n1,0,0,0,0,0,0,0,0
17/08/11,07:07:34,51 40.9680 N,002 03.9941 W,118.27,173.78,2954.0,08,1,N2,2,2,2,1,1,1,1,1,N2,0,0,0,0,0,0,0,0,n2,0,0,0,0,0,0,0,0,n2,0,0,0,0,0,0,0,0
17/08/11,07:07:40,51 40.7717 N,002 03.9682 W,118.43,175.74,2980.6,08,1,N3,1,1,1,1,0,0,0,0,N3,0,0,0,0,0,0,0,0,n3,0,0,0,0,0,0,0,0,n3,0,0,0,0,0,0,0,0
17/08/11,07:07:45,51 40.6070 N,002 03.9488 W,119.46,175.71,3002.0,08,1,N4,7,7,6,6,6,6,5,5,N4,5,5,5,5,5,5,5,5,n4,0,0,0,0,0,0,0,0,n4,0,0,0,0,0,0,0,0
17/08/11,07:07:51,51 40.4054 N,002 03.9252 W,122.36,175.77,3024.3,08,1,N5,3,3,3,3,2,2,2,2,N5,2,1,1,1,1,1,0,0,n5,0,0,0,0,0,0,0,0,n5,0,0,0,0,0,0,0,0
17/08/11,07:07:58,51 40.1682 N,002 03.9025 W,121.95,177.40,3060.2,08,1,N6,2,2,2,2,1,1,1,1,N6,1,1,1,1,1,1,1,0,n6,0,0,0,0,0,0,0,0,n6,0,0,0,0,0,0,0,0
17/08/11,07:08:03,51 40.0000 N,002 03.8928 W,121.24,178.02,3088.3,08,1,N7,1,1,1,0,0,0,0,0,N7,0,0,0,0,0,0,0,0,n7,0,0,0,0,0,0,0,0,n7,0,0,0,0,0,0,0,0
17/08/11,07:08:10,51 39.7652 N,002 03.8891 W,120.82,180.25,3124.5,08,1,N8,2,2,1,1,1,1,1,1,N8,1,0,0,0,0,0,0,0,n8,0,0,0,0,0,0,0,0,n8,0,0,0,0,0,0,0,0
17/08/11,07:08:15,51 39.5979 N,002 03.8942 W,120.57,181.33,3149.8,08,1,N9,2,1,1,1,1,0,0,0,N9,0,0,0,0,0,0,0,0,n9,0,0,0,0,0,0,0,0,n9,0,0,0,0,0,0,0,0
17/08/11,07:08:21,51 39.3978 N,002 03.9045 W,120.31,181.80,3180.5,08,1,N0,3,3,3,3,2,2,2,2,N0,2,1,1,1,1,1,0,0,n0,0,0,0,0,0,0,0,0,n0,0,0,0,0,0,0,0,0
17/08/11,07:08:27,51 39.1986 N,002 03.9144 W,119.42,181.55,3212.9,08,1,N1,2,1,1,1,1,0,0,0,N1,0,0,0,0,0,0,0,0,n1,0,0,0,0,0,0,0,0,n1,0,0,0,0,0,0,0,0
17/08/11,07:08:34,51 38.9686 N,002 03.9250 W,118.11,181.79,3248.6,08,1,N2,9,9,8,8,8,7,7,7,N2,7,7,7,7,7,7,7,7,n2,4,0,0,0,0,0,0,0,n2,0,0,0,0,0,0,0,0
17/08/11,07:08:39,51 38.8051 N,002 03.9352 W,118.04,182.36,3270.8,08,1,N3,2,1,1,1,1,0,0,0,N3,0,0,0,0,0,0,0,0,n3,0,0,0,0,0,0,0,0,n3,0,0,0,0,0,0,0,0
17/08/11,07:08:45,51 38.6086 N,002 03.9489 W,118.15,182.34,3296.5,08,1,N4,1,1,0,0,0,0,0,0,N4,0,0,0,0,0,0,0,0,n4,0,0,0,0,0,0,0,0,n4,0,0,0,0,0,0,0,0
17/08/11,07:08:50,51 38.4447 N,002 03.9592 W,118.38,182.07,3317.9,08,1,N5,2,1,1,1,1,1,0,0,N5,0,0,0,0,0,0,0,0,n5,0,0,0,0,0,0,0,0,n5,0,0,0,0,0,0,0,0
17/08/11,07:08:58,51 38.1829 N,002 03.9785 W,117.99,183.34,3352.4,08,1,N6,1,1,1,0,0,0,0,0,N6,0,0,0,0,0,0,0,0,n6,0,0,0,0,0,0,0,0,n6,0,0,0,0,0,0,0,0
17/08/11,07:09:04,51 37.9872 N,002 04.0041 W,118.30,185.25,3377.1,08,1,N7,2,1,1,1,1,0,0,0,N7,0,0,0,0,0,0,0,0,n7,0,0,0,0,0,0,0,0,n7,0,0,0,0,0,0,0,0
17/08/11,07:09:10,51 37.7899 N,002 04.0312 W,119.62,184.21,3402.7,08,1,N8,2,2,1,1,1,1,1,1,N8,0,0,0,0,0,0,0,0,n8,0,0,0,0,0,0,0,0,n8,0,0,0,0,0,0,0,0
17/08/11,07:09:15,51 37.6226 N,002 04.0469 W,121.39,182.91,3422.1,08,1,N9,1,1,0,0,0,0,0,0,N9,0,0,0,0,0,0,0,0,n9,0,0,0,0,0,0,0,0,n9,0,0,0,0,0,0,0,0
17/08/11,07:09:21,51 37.4189 N,002 04.0598 W,122.88,181.99,3446.4,08,1,N0,2,1,1,1,1,0,0,0,N0,0,0,0,0,0,0,0,0,n0,0,0,0,0,0,0,0,0,n0,0,0,0,0,0,0,0,0
17/08/11,07:09:28,51 37.1817 N,002 04.0720 W,122.00,180.77,3484.0,08,1,N1,1,1,1,0,0,0,0,0,N1,0,0,0,0,0,0,0,0,n1,0,0,0,0,0,0,0,0,n1,0,0,0,0,0,0,0,0
17/08/11,07:09:33,51 37.0124 N,002 04.0475 W,123.04,172.32,3510.0,08,1,N2,3,2,2,2,2,2,1,1,N2,1,1,1,1,1,1,0,0,n2,0,0,0,0,0,0,0,0,n2,0,0,0,0,0,0,0,0
17/08/11,07:09:40,51 36.7740 N,002 03.9495 W,129.09,161.63,3531.9,08,1,N3,15,15,15,14,14,14,14,14,N3,14,13,13,13,13,13,13,13,n3,6,3,0,0,0,0,0,0,n3,0,0,0,0,0,0,0,0
17/08/11,07:09:45,51 36.6070 N,002 03.8311 W,132.59,154.16,3547.5,08,1,N4,2,2,1,1,1,1,1,0,N4,0,0,0,0,0,0,0,0,n4,0,0,0,0,0,0,0,0,n4,0,0,0,0,0,0,0,0
17/08/11,07:09:51,51 36.4169 N,002 03.6440 W,134.28,146.16,3574.0,08,1,N5,3,3,3,2,2,2,2,2,N5,1,1,1,1,1,1,1,0,n5,0,0,0,0,0,0,0,0,n5,0,0,0,0,0,0,0,0
17/08/11,07:09:58,51 36.2152 N,002 03.3821 W,132.86,138.71,3614.4,08,1,N6,2,1,1,1,0,0,0,0,N6,0,0,0,0,0,0,0,0,n6,0,0,0,0,0,0,0,0,n6,0,0,0,0,0,0,0,0
17/08/11,07:10:04,51 36.0576 N,002 03.1341 W,132.14,134.41,3646.6,08,1,N7,1,1,0,0,0,0,0,0,N7,0,0,0,0,0,0,0,0,n7,0,0,0,0,0,0,0,0,n7,0,0,0,0,0,0,0,0
17/08/11,07:10:09,51 35.9350 N,002 02.9140 W,132.48,131.61,3670.2,08,1,N8,5,4,4,4,4,4,3,3,N8,3,3,3,3,3,2,0,0,n8,0,0,0,0,0,0,0,0,n8,0,0,0,0,0,0,0,0
17/08/11,07:10:15,51 35.7996 N,002 02.6289 W,135.14,124.44,3691.7,08,1,N9,1,1,0,0,0,0,0,0,N9,0,0,0,0,0,0,0,0,n9,0,0,0,0,0,0,0,0,n9,0,0,0,0,0,0,0,0
17/08/11,07:10:21,51 35.6972 N,002 02.3035 W,136.71,113.75,3718.4,08,1,N0,2,2,1,1,1,1,0,0,N0,0,0,0,0,0,0,0,0,n0,0,0,0,0,0,0,0,0,n0,0,0,0,0,0,0,0,0
17/08/11,07:10:27,51 35.6324 N,002 01.9623 W,131.62,104.24,3761.4,08,1,N1,2,2,2,2,1,1,1,1,N1,0,0,0,0,0,0,0,0,n1,0,0,0,0,0,0,0,0,n1,0,0,0,0,0,0,0,0
17/08/11,07:10:34,51 35.5978 N,002 01.5591 W,130.27,95.41,3799.2,08,1,N2,2,1,1,1,0,0,0,0,N2,0,0,0,0,0,0,0,0,n2,0,0,0,0,0,0,0,0,n2,0,0,0,0,0,0,0,0
17/08/11,07:10:39,51 35.5940 N,002 01.2667 W,131.34,89.78,3817.8,08,1,N3,2,1,1,1,1,0,0,0,N3,0,0,0,0,0,0,0,0,n3,0,0,0,0,0,0,0,0,n3,0,0,0,0,0,0,0,0
17/08/11,07:10:45,51 35.6139 N,002 00.9144 W,132.27,82.92,3839.5,08,1,N4,2,2,1,1,1,1,1,0,N4,0,0,0,0,0,0,0,0,n4,0,0,0,0,0,0,0,0,n4,0,0,0,0,0,0,0,0
17/08/11,07:10:51,51 35.6575 N,002 00.5660 W,132.76,77.83,3862.6,08,1,N5,3,3,2,2,2,2,2,2,N5,2,1,1,1,1,1,1,0,n5,0,0,0,0,0,0,0,0,n5,0,0,0,0,0,0,0,0
17/08/11,07:10:57,51 35.7047 N,002 00.2202 W,131.47,77.70,3891.0,08,1,N6,3,3,2,2,2,2,2,2,N6,1,1,1,1,1,1,1,0,n6,0,0,0,0,0,0,0,0,n6,0,0,0,0,0,0,0,0
17/08/11,07:11:04,51 35.7634 N,001 59.8235 W,129.92,76.83,3923.1,08,1,N7,3,3,3,3,2,2,2,2,N7,2,2,2,2,1,1,0,0,n7,0,0,0,0,0,0,0,0,n7,0,0,0,0,0,0,0,0
17/08/11,07:11:10,51 35.8151 N,001 59.4866 W,129.37,76.13,3948.7,08,1,N8,2,2,1,1,1,1,1,1,N8,0,0,0,0,0,0,0,0,n8,0,0,0,0,0,0,0,0,n8,0,0,0,0,0,0,0,0
17/08/11,07:11:15,51 35.8587 N,001 59.2071 W,129.03,76.10,3969.9,08,1,N9,1,1,1,1,1,0,0,0,N9,0,0,0,0,0,0,0,0,n9,0,0,0,0,0,0,0,0,n9,0,0,0,0,0,0,0,0
17/08/11,07:11:21,51 35.9136 N,001 58.8753 W,127.89,74.94,3995.5,08,1,N0,3,2,2,2,2,1,1,1,N0,1,1,1,1,1,1,0,0,n0,0,0,0,0,0,0,0,0,n0,0,0,0,0,0,0,0,0
17/08/11,07:11:28,51 35.9835 N,001 58.4882 W,129.83,74.17,4016.9,09,1,N1,2,2,1,1,1,1,1,1,N1,0,0,0,0,0,0,0,0,n1,0,0,0,0,0,0,0,0,n1,0,0,0,0,0,0,0,0
17/08/11,07:11:33,51 36.0305 N,001 58.2079 W,130.37,75.48,4034.3,08,1,N2,2,2,1,1,1,1,1,0,N2,0,0,0,0,0,0,0,0,n2,0,0,0,0,0,0,0,0,n2,0,0,0,0,0,0,0,0
17/08/11,07:11:39,51 36.0856 N,001 57.8704 W,130.61,75.49,4054.9,09,1,N3,1,1,1,0,0,0,0,0,N3,0,0,0,0,0,0,0,0,n3,0,0,0,0,0,0,0,0,n3,0,0,0,0,0,0,0,0
17/08/11,07:11:45,51 36.1404 N,001 57.5220 W,136.08,76.35,4061.7,09,1,N4,2,2,2,2,1,1,1,1,N4,1,1,1,1,1,1,1,0,n4,0,0,0,0,0,0,0,0,n4,0,0,0,0,0,0,0,0
17/08/11,07:11:51,51 36.1950 N,001 57.1582 W,141.70,76.55,4066.0,09,1,N5,2,2,2,2,2,1,1,1,N5,1,1,1,1,1,1,1,0,n5,0,0,0,0,0,0,0,0,n5,0,0,0,0,0,0,0,0
17/08/11,07:11:58,51 36.2597 N,001 56.7143 W,148.32,77.10,4070.6,09,1,N6,1,1,1,1,0,0,0,0,N6,0,0,0,0,0,0,0,0,n6,0,0,0,0,0,0,0,0,n6,0,0,0,0,0,0,0,0
17/08/11,07:12:04,51 36.3138 N,001 56.3168 W,153.91,78.33,4073.4,09,1,N7,1,1,1,1,0,0,0,0,N7,0,0,0,0,0,0,0,0,n7,0,0,0,0,0,0,0,0,n7,0,0,0,0,0,0,0,0
17/08/11,07:12:10,51 36.3648 N,001 55.9025 W,159.79,79.05,4074.4,09,1,N8,3,3,2,2,2,2,2,2,N8,1,1,1,1,1,1,0,0,n8,0,0,0,0,0,0,0,0,n8,0,0,0,0,0,0,0,0
17/08/11,07:12:15,51 36.4064 N,001 55.5447 W,164.67,79.66,4073.9,09,1,N9,2,2,1,1,1,1,0,0,N9,0,0,0,0,0,0,0,0,n9,0,0,0,0,0,0,0,0,n9,0,0,0,0,0,0,0,0
17/08/11,07:12:21,51 36.4546 N,001 55.1008 W,170.26,80.36,4071.5,09,1,N0,2,1,1,1,1,0,0,0,N0,0,0,0,0,0,0,0,0,n0,0,0,0,0,0,0,0,0,n0,0,0,0,0,0,0,0,0
17/08/11,07:12:27,51 36.5003 N,001 54.6419 W,175.26,81.19,4069.6,09,1,N1,1,1,1,0,0,0,0,0,N1,0,0,0,0,0,0,0,0,n1,0,0,0,0,0,0,0,0,n1,0,0,0,0,0,0,0,0
17/08/11,07:12:34,51 36.5505 N,001 54.0898 W,180.49,81.99,4066.9,09,1,N2,3,2,2,2,2,1,1,1,N2,1,1,0,0,0,0,0,0,n2,0,0,0,0,0,0,0,0,n2,0,0,0,0,0,0,0,0
17/08/11,07:12:40,51 36.5905 N,001 53.6040 W,184.25,82.69,4066.7,09,1,N3,3,3,2,2,2,2,2,2,N3,1,1,1,1,1,1,1,0,n3,0,0,0,0,0,0,0,0,n3,0,0,0,0,0,0,0,0
17/08/11,07:12:45,51 36.6216 N,001 53.1921 W,186.87,83.23,4066.7,09,1,N4,1,1,1,1,0,0,0,0,N4,0,0,0,0,0,0,0,0,n4,0,0,0,0,0,0,0,0,n4,0,0,0,0,0,0,0,0
17/08/11,07:12:51,51 36.6568 N,001 52.6901 W,189.66,83.77,4067.8,09,1,N5,1,1,1,0,0,0,0,0,N5,0,0,0,0,0,0,0,0,n5,0,0,0,0,0,0,0,0,n5,0,0,0,0,0,0,0,0
17/08/11,07:12:58,51 36.6948 N,001 52.0950 W,192.75,84.34,4069.0,09,1,N6,10,10,9,9,9,9,9,9,N6,8,8,8,8,8,8,8,7,n6,4,0,0,0,0,0,0,0,n6,0,0,0,0,0,0,0,0
17/08/11,07:13:04,51 36.7243 N,001 51.5773 W,195.14,84.98,4069.7,09,1,N7,3,3,3,2,2,2,2,2,N7,2,1,1,0,0,0,0,0,n7,0,0,0,0,0,0,0,0,n7,0,0,0,0,0,0,0,0
17/08/11,07:13:10,51 36.7444 N,001 51.0519 W,197.55,87.25,4068.9,09,1,N8,7,7,7,7,6,6,6,6,N8,5,5,5,5,5,5,5,5,n8,0,0,0,0,0,0,0,0,n8,0,0,0,0,0,0,0,0
17/08/11,07:13:15,51 36.7527 N,001 50.6088 W,199.40,88.66,4068.3,09,1,N9,1,1,1,0,0,0,0,0,N9,0,0,0,0,0,0,0,0,n9,0,0,0,0,0,0,0,0,n9,0,0,0,0,0,0,0,0
17/08/11,07:13:21,51 36.7549 N,001 50.0717 W,201.45,90.05,4067.6,09,1,N0,4,3,3,3,2,2,2,2,N0,2,2,2,1,1,1,1,0,n0,0,0,0,0,0,0,0,0,n0,0,0,0,0,0,0,0,0
17/08/11,07:13:27,51 36.7495 N,001 49.5295 W,203.34,91.25,4066.9,09,1,N1,6,6,6,6,5,5,5,5,N1,5,5,5,5,5,5,5,5,n1,0,0,0,0,0,0,0,0,n1,0,0,0,0,0,0,0,0
17/08/11,07:13:34,51 36.7350 N,001 48.8916 W,205.22,92.44,4065.8,09,1,N2,3,3,2,2,2,2,2,1,N2,1,1,1,1,1,1,0,0,n2,0,0,0,0,0,0,0,0,n2,0,0,0,0,0,0,0,0
17/08/11,07:13:40,51 36.7161 N,001 48.3414 W,206.36,93.41,4066.2,09,1,N3,3,3,3,2,2,2,1,1,N3,1,1,1,1,1,1,0,0,n3,0,0,0,0,0,0,0,0,n3,0,0,0,0,0,0,0,0
17/08/11,07:13:45,51 36.6964 N,001 47.8809 W,207.47,94.09,4065.5,09,1,N4,2,2,1,1,1,1,1,1,N4,0,0,0,0,0,0,0,0,n4,0,0,0,0,0,0,0,0,n4,0,0,0,0,0,0,0,0
17/08/11,07:13:50,51 36.6734 N,001 47.4183 W,208.52,94.69,4064.9,09,1,N5,7,6,6,6,5,5,5,5,N5,5,5,5,5,5,5,5,5,n5,0,0,0,0,0,0,0,0,n5,0,0,0,0,0,0,0,0
17/08/11,07:13:58,51 36.6305 N,001 46.6754 W,209.79,95.54,4064.5,09,1,N6,2,1,1,1,1,1,0,0,N6,0,0,0,0,0,0,0,0,n6,0,0,0,0,0,0,0,0,n6,0,0,0,0,0,0,0,0
17/08/11,07:14:04,51 36.5948 N,001 46.1157 W,210.74,95.91,4064.1,09,1,N7,3,2,2,2,2,1,1,1,N7,1,0,0,0,0,0,0,0,n7,0,0,0,0,0,0,0,0,n7,0,0,0,0,0,0,0,0
17/08/11,07:14:10,51 36.5566 N,001 45.5545 W,211.45,96.28,4064.3,09,1,N8,3,2,2,2,2,1,1,1,N8,1,1,1,1,1,1,0,0,n8,0,0,0,0,0,0,0,0,n8,0,0,0,0,0,0,0,0
17/08/11,07:14:15,51 36.5231 N,001 45.0856 W,212.06,96.58,4064.8,09,1,N9,1,1,1,1,1,0,0,0,N9,0,0,0,0,0,0,0,0,n9,0,0,0,0,0,0,0,0,n9,0,0,0,0,0,0,0,0
17/08/11,07:14:21,51 36.4814 N,001 44.5216 W,212.76,96.77,4064.2,09,1,N0,3,2,2,2,1,1,1,1,N0,1,1,0,0,0,0,0,0,n0,0,0,0,0,0,0,0,0,n0,0,0,0,0,0,0,0,0
17/08/11,07:14:28,51 36.4308 N,001 43.8619 W,213.34,97.07,4065.7,09,1,N1,2,2,2,1,1,1,0,0,N1,0,0,0,0,0,0,0,0,n1,0,0,0,0,0,0,0,0,n1,0,0,0,0,0,0,0,0
17/08/11,07:14:33,51 36.3938 N,001 43.3895 W,213.95,97.18,4065.4,09,1,N2,2,1,1,1,1,0,0,0,N2,0,0,0,0,0,0,0,0,n2,0,0,0,0,0,0,0,0,n2,0,0,0,0,0,0,0,0
17/08/11,07:14:40,51 36.3410 N,001 42.7262 W,214.76,97.26,4063.9,09,1,N3,2,1,1,1,1,0,0,0,N3,0,0,0,0,0,0,0,0,n3,0,0,0,0,0,0,0,0,n3,0,0,0,0,0,0,0,0
17/08/11,07:14:45,51 36.3032 N,001 42.2512 W,215.13,97.26,4063.6,09,1,N4,2,1,1,1,0,0,0,0,N4,0,0,0,0,0,0,0,0,n4,0,0,0,0,0,0,0,0,n4,0,0,0,0,0,0,0,0
17/08/11,07:14:51,51 36.2580 N,001 41.6804 W,215.46,97.17,4063.8,09,1,N5,1,1,1,0,0,0,0,0,N5,0,0,0,0,0,0,0,0,n5,0,0,0,0,0,0,0,0,n5,0,0,0,0,0,0,0,0
17/08/11,07:14:57,51 36.2176 N,001 41.1074 W,215.99,95.49,4063.0,09,1,N6,2,1,1,1,0,0,0,0,N6,0,0,0,0,0,0,0,0,n6,0,0,0,0,0,0,0,0,n6,0,0,0,0,0,0,0,0
17/08/11,07:15:04,51 36.2034 N,001 40.4347 W,216.01,90.57,4065.0,09,1,N7,2,1,1,1,0,0,0,0,N7,0,0,0,0,0,0,0,0,n7,0,0,0,0,0,0,0,0,n7,0,0,0,0,0,0,0,0
17/08/11,07:15:10,51 36.2093 N,001 39.8571 W,216.37,88.57,4064.1,09,1,N8,2,1,1,1,1,1,0,0,N8,0,0,0,0,0,0,0,0,n8,0,0,0,0,0,0,0,0,n8,0,0,0,0,0,0,0,0
17/08/11,07:15:15,51 36.2208 N,001 39.3756 W,216.37,87.59,4064.1,09,1,N9,2,1,1,1,1,0,0,0,N9,0,0,0,0,0,0,0,0,n9,0,0,0,0,0,0,0,0,n9,0,0,0,0,0,0,0,0